Flag for U.S.A. Weather past 2 weeks in Miami, Florida, U.S.A.

Now
90 °F

Passing clouds.


Feels Like: 97 °F
Forecast: 82 / 89 °F
Wind: 9 mph from Southeast

Location: Miami International Airport

Current Time: Jul 6, 2015 at 2:16:30 PM

Latest Report: Jul 6, 2015 at 1:53 PM


Visibility: 10 mi

Pressure: 30.15 "Hg

Humidity: 56%

Dew point: 72 °F

Location of MiamiLocation

Historic Weather in Miami — Graph

°F

Miami temperature yesterday

Maximum temperature yesterday: 90 °F (at 12:53 PM)
Minimum temperature yesterday: 83 °F (at 4:53 AM)
Average temperature yesterday: 86 °F

Past Weeks' High & Low Weather Summary

 TemperatureHumidityPressure
High94 °F (Jun 30, 12:53 PM)91% (Jul 6, 3:03 AM)30.18 "Hg (Jul 6, 3:03 AM)
Low74 °F (Jul 6, 3:03 AM)44% (Jun 30, 12:53 PM)30.03 "Hg (Jun 27, 4:53 AM)
Average84 °F69%30.10 "Hg
* Reported Jun 21 1:53 PM — Jul 6 12:53 PM, Miami, Weather by CustomWeather, © 2015

Note: Actual official high and low records may vary slightly from our data, if they occured in-between our weather recording intervals... More about our weather records

Advertising

Miami weather history for previous 24 hours

 ConditionsComfort  
Time TempWeatherWind HumidityBarometerVisibility
12:53 PM
Mon, Jul 6
89 °FScattered clouds.10 mph57%30.18 "Hg10 mi
11:53 AM89 °FScattered clouds.10 mph57%30.17 "Hg10 mi
10:53 AM86 °FBroken clouds.N/A65%30.17 "Hg10 mi
9:53 AM86 °FBroken clouds.6 mph67%30.16 "Hg10 mi
8:53 AM84 °FBroken clouds.8 mph72%30.15 "Hg10 mi
7:53 AM82 °FMostly cloudy.10 mph82%30.11 "Hg10 mi
6:53 AM79 °FMostly cloudy.12 mph84%30.11 "Hg10 mi
5:53 AM77 °FPassing clouds.8 mph82%30.12 "Hg10 mi
4:53 AM75 °FMostly cloudy.7 mph88%30.13 "Hg10 mi
3:53 AM75 °FOvercast.3 mph88%30.14 "Hg10 mi
3:03 AM74 °FThunderstorms. Overcast.7 mph91%30.16 "Hg4 mi
2:53 AM75 °FStrong thunderstorms. Overcast.6 mph88%30.16 "Hg1 mi
2:04 AM76 °FLight rain. Mostly cloudy.13 mph88%30.18 "Hg1 mi
1:53 AM76 °FLight rain. Mostly cloudy.12 mph88%30.18 "Hg2 mi
12:53 AM85 °FPartly cloudy.7 mph72%30.17 "Hg8 mi
11:53 PM
Sun, Jul 5
85 °FPassing clouds.9 mph75%30.17 "Hg8 mi
10:53 PM85 °FPassing clouds.9 mph72%30.17 "Hg10 mi
9:53 PM85 °FLight rain. Partly cloudy.10 mph72%30.16 "Hg10 mi
8:53 PM85 °FScattered clouds.12 mph70%30.12 "Hg10 mi
7:53 PM85 °FScattered clouds.13 mph70%30.10 "Hg10 mi
6:53 PM87 °FScattered clouds.14 mph63%30.11 "Hg10 mi
5:53 PM88 °FScattered clouds.13 mph59%30.11 "Hg10 mi
4:53 PM88 °FScattered clouds.12 mph61%30.12 "Hg10 mi
3:53 PM90 °FScattered clouds.12 mph56%30.12 "Hg10 mi
2:53 PM90 °FBroken clouds.12 mph57%30.14 "Hg10 mi
Weather by CustomWeather, © 2015

See weather overviewHow to use our weather pages